Date String (YYYY-MM-DD hh:mm:ss) UTC,Instrument flags,Ambient pressure (hPa),Sample flow (lpm),Bypass flow (lpm),Sample temperature (°C),Ambient temperature (°C),ASC tube jacket temperature (°C),LED temperature (°C),Box temperature (°C),Sample RH (%),Span deviation,Mass concentration (μg/m³),Mass concentration (μg/m³),Mass concentration (μg/m³)
DateTimeUTC,F1_M11,P_M11,Q1_M11,Q2_M11,T1_M11,T2_M11,T3_M11,T4_M11,T5_M11,U1_M11,ZSPAN_M11,X0_M11,X2_M11,X1_M11
2022-09-02 09:00:00,,0826.1,5.00,0.00,30.0,28.1,00.0,38.8,31.8,12.5,0000.0,0010.69,0006.74,0006.22
2022-09-02 09:01:00,,0826.1,5.01,0.00,30.0,28.3,00.0,38.8,31.8,12.6,0000.0,0010.63,0006.70,0006.18
2022-09-02 09:02:00,,0826.2,5.01,0.00,30.0,28.5,00.0,38.8,31.8,12.8,0000.0,0010.50,0006.61,0006.12
2022-09-02 09:03:00,,0826.2,5.01,0.00,30.0,28.6,00.0,38.8,31.8,12.9,0000.0,0010.39,0006.57,0006.09
2022-09-02 09:04:00,,0826.2,4.98,0.00,30.0,28.7,00.0,38.8,31.9,12.9,0000.0,0010.37,0006.56,0006.04
2022-09-02 09:05:00,,0826.2,5.00,0.00,30.1,28.8,00.0,38.8,31.9,13.0,0000.0,0010.41,0006.54,0006.01
2022-09-02 09:06:00,,0826.3,5.01,0.00,30.1,28.9,00.0,38.8,31.9,13.0,0000.0,0010.46,0006.50,0005.96
2022-09-02 09:07:00,,0826.2,5.01,0.00,30.1,28.9,00.0,38.9,31.9,12.8,0000.0,0010.53,0006.47,0005.91
2022-09-02 09:08:00,,0826.2,4.99,0.00,30.1,29.0,00.0,38.9,32.0,12.7,0000.0,0010.49,0006.47,0005.89
2022-09-02 09:09:00,,0826.2,5.01,0.00,30.1,29.0,00.0,38.9,32.0,12.5,0000.0,0010.27,0006.45,0005.88
2022-09-02 09:10:00,,0826.2,5.01,0.00,30.2,29.1,00.0,38.9,32.0,12.5,0000.0,0009.81,0006.45,0005.87
2022-09-02 09:11:00,,0826.2,5.00,0.00,30.2,29.1,00.0,38.9,32.1,12.5,0000.0,0009.54,0006.41,0005.86
2022-09-02 09:12:00,,0826.4,4.98,0.00,30.2,29.2,00.0,38.9,32.1,12.5,0000.0,0009.49,0006.40,0005.83
2022-09-02 09:13:00,,0826.2,5.01,0.00,30.3,29.2,00.0,39.0,32.1,12.4,0000.0,0009.54,0006.41,0005.82
2022-09-02 09:14:00,,0826.3,5.01,0.00,30.3,29.2,00.0,39.0,32.1,12.3,0000.0,0009.65,0006.42,0005.80
2022-09-02 09:15:00,,0826.3,4.99,0.00,30.3,29.3,00.0,39.0,32.2,12.2,0000.0,0009.64,0006.38,0005.79
2022-09-02 09:16:00,,0826.3,5.00,0.00,30.3,28.8,00.0,39.0,32.1,12.1,0000.0,0009.50,0006.30,0005.74
2022-09-02 09:17:00,,0826.3,5.00,0.00,30.3,27.3,00.0,39.0,31.9,12.2,0000.0,0009.35,0006.21,0005.69
2022-09-02 09:18:00,,0826.4,5.01,0.00,30.2,27.0,00.0,39.0,31.9,12.3,0000.0,0009.29,0006.15,0005.63
2022-09-02 09:19:00,,0826.3,4.99,0.00,30.1,27.2,00.0,38.9,31.8,12.4,0000.0,0009.22,0006.10,0005.56
2022-09-02 09:20:00,,0826.2,5.00,0.00,30.1,27.5,00.0,38.9,31.8,12.4,0000.0,0009.14,0006.02,0005.49
2022-09-02 09:21:00,,0826.2,5.00,0.00,30.1,27.8,00.0,38.9,31.7,12.4,0000.0,0009.08,0005.96,0005.42
2022-09-02 09:22:00,,0826.2,4.99,0.00,30.0,28.1,00.0,38.8,31.7,12.3,0000.0,0009.13,0005.93,0005.34
2022-09-02 09:23:00,,0826.3,5.01,0.00,30.0,28.2,00.0,38.8,31.7,12.4,0000.0,0008.96,0005.82,0005.26
2022-09-02 09:24:00,,0826.2,5.00,0.00,30.0,28.4,00.0,38.8,31.8,12.4,0000.0,0008.79,0005.70,0005.17
2022-09-02 09:25:00,,0826.2,5.00,0.00,30.0,28.5,00.0,38.8,31.8,12.4,0000.0,0008.82,0005.62,0005.10
2022-09-02 09:26:00,,0826.3,5.01,0.00,30.0,28.6,00.0,38.8,31.9,12.4,0000.0,0009.28,0005.56,0005.03
2022-09-02 09:27:00,,0826.3,4.98,0.00,30.1,28.7,00.0,38.8,31.9,12.5,0000.0,0009.31,0005.53,0004.99
2022-09-02 09:28:00,,0826.3,5.00,0.00,30.1,28.8,00.0,38.9,31.9,12.5,0000.0,0009.82,0005.56,0004.98
2022-09-02 09:29:00,,0826.3,5.01,0.00,30.1,28.9,00.0,38.9,31.9,12.5,0000.0,0009.90,0005.53,0004.97
2022-09-02 09:30:00,,0826.3,5.01,0.00,30.1,28.9,00.0,38.9,32.0,12.4,0000.0,0010.66,0005.50,0004.96
2022-09-02 09:31:00,,0826.4,5.00,0.00,30.1,29.0,00.0,38.9,32.0,12.4,0000.0,0011.14,0005.50,0004.97
2022-09-02 09:32:00,,0826.4,5.00,0.00,30.2,29.0,00.0,38.9,32.0,12.3,0000.0,0011.73,0005.52,0004.97
2022-09-02 09:33:00,,0826.4,4.99,0.00,30.2,29.1,00.0,38.9,32.0,12.3,0000.0,0011.72,0005.51,0004.98
2022-09-02 09:34:00,,0826.4,5.01,0.00,30.2,29.1,00.0,38.9,32.0,12.3,0000.0,0011.96,0005.58,0005.02
2022-09-02 09:35:00,,0826.4,4.99,0.00,30.2,29.1,00.0,39.0,32.1,12.2,0000.0,0012.16,0005.65,0005.07
2022-09-02 09:36:00,,0826.5,5.00,0.00,30.2,29.2,00.0,39.0,32.1,12.2,0000.0,0012.10,0005.68,0005.11
2022-09-02 09:37:00,,0826.5,5.01,0.00,30.3,29.2,00.0,39.0,32.1,12.2,0000.0,0011.67,0005.72,0005.16
2022-09-02 09:38:00,,0826.5,5.00,0.00,30.3,29.2,00.0,39.0,32.1,12.1,0000.0,0011.80,0005.77,0005.20
2022-09-02 09:39:00,,0826.5,5.01,0.00,30.3,29.3,00.0,39.0,32.2,12.1,0000.0,0011.49,0005.83,0005.26
2022-09-02 09:40:00,,0826.5,5.00,0.00,30.3,28.8,00.0,39.0,32.1,12.1,0000.0,0011.52,0005.90,0005.31
2022-09-02 09:41:00,,0826.5,5.00,0.00,30.3,27.4,00.0,39.0,32.0,12.1,0000.0,0010.87,0005.95,0005.35
2022-09-02 09:42:00,,0826.5,4.99,0.00,30.3,27.1,00.0,39.0,32.0,12.1,0000.0,0010.36,0005.98,0005.40
2022-09-02 09:43:00,,0826.5,5.01,0.00,30.2,27.2,00.0,38.9,31.9,12.2,0000.0,0009.82,0005.97,0005.44
2022-09-02 09:44:00,,0826.5,5.01,0.00,30.1,27.6,00.0,38.9,31.8,12.2,0000.0,0010.30,0006.02,0005.48
2022-09-02 09:45:00,,0826.4,4.98,0.00,30.1,27.8,00.0,38.9,31.7,12.3,0000.0,0010.75,0006.03,0005.49
2022-09-02 09:46:00,,0826.4,5.02,0.00,30.1,28.1,00.0,38.9,31.8,12.3,0000.0,0010.88,0006.04,0005.50
2022-09-02 09:47:00,,0826.4,5.00,0.00,30.1,28.3,00.0,38.9,31.8,12.3,0000.0,0011.10,0006.06,0005.51
2022-09-02 09:48:00,,0826.5,5.00,0.00,30.1,28.4,00.0,38.9,31.8,12.3,0000.0,0011.50,0006.08,0005.51
2022-09-02 09:49:00,,0826.5,5.00,0.00,30.1,28.6,00.0,38.9,31.9,12.3,0000.0,0012.15,0006.08,0005.51
2022-09-02 09:50:00,,0826.5,5.01,0.00,30.1,28.7,00.0,38.9,31.9,12.3,0000.0,0012.10,0006.04,0005.51
2022-09-02 09:51:00,,0826.5,5.00,0.00,30.1,28.8,00.0,38.9,31.9,12.3,0000.0,0012.32,0006.01,0005.51
2022-09-02 09:52:00,,0826.5,5.01,0.00,30.1,28.8,00.0,38.9,31.9,12.3,0000.0,0012.86,0006.02,0005.51
2022-09-02 09:53:00,,0826.5,4.98,0.00,30.1,28.9,00.0,38.9,32.0,12.3,0000.0,0012.87,0006.03,0005.50
2022-09-02 09:54:00,,0826.5,5.01,0.00,30.1,29.0,00.0,38.9,32.0,12.3,0000.0,0013.21,0006.06,0005.50
2022-09-02 09:55:00,,0826.5,5.01,0.00,30.2,29.0,00.0,38.9,32.0,12.2,0000.0,0012.86,0006.07,0005.51
2022-09-02 09:56:00,,0826.5,4.98,0.00,30.2,29.0,00.0,38.9,32.0,12.2,0000.0,0012.87,0006.08,0005.52
2022-09-02 09:57:00,,0826.5,5.01,0.00,30.2,29.1,00.0,38.9,32.0,12.2,0000.0,0013.32,0006.09,0005.53
2022-09-02 09:58:00,,0826.5,5.01,0.00,30.2,29.1,00.0,39.0,32.1,12.2,0000.0,0013.77,0006.12,0005.54
2022-09-02 09:59:00,,0826.5,5.01,0.00,30.2,29.2,00.0,39.0,32.1,12.3,0000.0,0013.28,0006.13,0005.55
